Torna al catalogo

CENTISPACE-2 S2

AttivoNavigazioneLEO
NORAD 68351·PAYLOAD·🇨🇳 China

Lanciato Mar 22, 2026 da Yellow Sea Launch Area

Loading…

Prossimi Passaggi (prossime 24 ore)

TLE

AggiornatoSource: Space-Track

Epoca: Sep 14, 2026, 14:05 UTC

1 68351U 26060B   26257.58748982  .00000200  00000-0  15222-3 0  9997
2 68351  54.9814  48.8997 0009336 271.6845  88.3062 14.24931838 25686

Traccia CENTISPACE-2 S2 in tempo reale con AllMySat

Download on the App Store